Weather History for Huntingburg, IN

Change the Weather History Date:

Friday, February 14, 2014

  Actual Average Record
Temperature  
Mean Temperature 26 °F -  
Max Temperature 35 °F 44 °F 60 °F (2001)
Min Temperature 17 °F 29 °F 15 °F (2007)
Degree Days  
Heating Degree Days 39    
Moisture  
Dew Point 23 °F    
Average Humidity 80    
Maximum Humidity 93    
Minimum Humidity 60    
Precipitation  
Precipitation 0.08 in - - ()
Sea Level Pressure  
Sea Level Pressure 29.75 in    
Wind  
Wind Speed 8 mph (WNW)    
Max Wind Speed 21 mph    
Max Gust Speed 31 mph    
Visibility 7 miles    
Events      
Averages and records for this station are not official NWS values.
T = Trace of Precipitation, MM = Missing Value Source: NWS Daily Summary

Daily Weather History Graph

Daily Weather History Graph

Search for Another Location

Airport:

Trip Planner

Search our weather history database for the weather conditions in past years. The results will help you decide how hot, cold, wet, or windy it might be!

Date:

Astronomy

Feb. 14, 2014 Rise Set
Actual Time 7:39 AM EST 6:25 PM EST
Civil Twilight 7:12 AM EST 6:52 PM EST
Nautical Twilight 6:41 AM EST 7:23 PM EST
Astronomical Twilight 6:10 AM EST 7:53 PM EST
Moon 6:27 PM EST (2/14) 7:06 AM EST (2/14)
Length of Visible Light 11h 40m
Length of Day
10h 45m
Full, 100% of the Moon is Illuminated
Feb 14
Full
Feb 14
Full
Feb 22
Last Quarter
Mar 1
New
Mar 8
First Quarter

Hourly Weather History & Observations

Time (EST) Temp. Windchill Dew Point Humidity Pressure Visibility Wind Dir Wind Speed Gust Speed Precip Events Conditions
12:15 AM 32.0 °F 25.6 °F 19.4 °F 60% 29.75 in 10.0 mi SW 6.9 mph - N/A   Clear
12:35 AM 32.0 °F 24.8 °F 19.4 °F 60% 29.74 in 10.0 mi SW 8.1 mph - N/A   Clear
12:55 AM 32.0 °F 24.8 °F 21.2 °F 64% 29.75 in 10.0 mi WSW 8.1 mph - N/A   Clear
1:15 AM 32.0 °F 24.8 °F 21.2 °F 64% 29.74 in 10.0 mi WSW 8.1 mph - N/A   Clear
1:35 AM 32.0 °F 23.6 °F 21.2 °F 64% 29.74 in 10.0 mi WSW 10.4 mph - N/A   Clear
1:55 AM 30.2 °F 21.9 °F 21.2 °F 69% 29.74 in 10.0 mi WSW 9.2 mph - N/A   Clear
2:15 AM 30.2 °F 21.9 °F 21.2 °F 69% 29.75 in 10.0 mi WSW 9.2 mph - N/A   Clear
2:35 AM 30.2 °F 21.9 °F 23.0 °F 75% 29.75 in 10.0 mi WSW 9.2 mph - N/A   Clear
2:55 AM 30.2 °F 21.9 °F 21.2 °F 69% 29.75 in 10.0 mi WSW 9.2 mph - N/A   Clear
3:15 AM 30.2 °F 22.6 °F 23.0 °F 75% 29.75 in 10.0 mi WSW 8.1 mph - N/A   Clear
3:35 AM 30.2 °F 23.4 °F 23.0 °F 75% 29.74 in 10.0 mi WSW 6.9 mph - N/A   Clear
3:55 AM 30.2 °F 23.4 °F 21.2 °F 69% 29.75 in 10.0 mi WSW 6.9 mph - N/A   Clear
4:15 AM 30.2 °F 23.4 °F 21.2 °F 69% 29.74 in 10.0 mi WSW 6.9 mph - N/A   Clear
4:35 AM 28.4 °F 23.3 °F 21.2 °F 74% 29.74 in 10.0 mi SW 4.6 mph - N/A   Clear
4:55 AM 26.6 °F 19.1 °F 21.2 °F 80% 29.74 in 10.0 mi SW 6.9 mph - N/A   Clear
5:15 AM 26.6 °F 20.0 °F 21.2 °F 80% 29.75 in 10.0 mi SW 5.8 mph - N/A   Clear
5:35 AM 26.6 °F 18.2 °F 21.2 °F 80% 29.74 in 10.0 mi SSW 8.1 mph - N/A   Clear
5:55 AM 24.8 °F 17.9 °F 17.6 °F 74% 29.75 in 10.0 mi SSW 5.8 mph - N/A   Clear
6:15 AM 24.8 °F 19.1 °F 19.4 °F 80% 29.75 in 10.0 mi South 4.6 mph - N/A   Clear
6:35 AM 26.6 °F 19.1 °F 21.2 °F 80% 29.76 in 10.0 mi SW 6.9 mph - N/A   Clear
6:55 AM 26.6 °F 20.0 °F 21.2 °F 80% 29.77 in 10.0 mi West 5.8 mph - N/A   Clear
7:15 AM 26.6 °F 22.6 °F 21.2 °F 80% 29.77 in 10.0 mi WSW 3.5 mph - N/A   Clear
7:35 AM 26.6 °F 20.0 °F 21.2 °F 80% 29.78 in 9.0 mi West 5.8 mph - N/A   Clear
7:55 AM 26.6 °F - 21.2 °F 80% 29.76 in 7.0 mi Calm Calm - N/A   Clear
8:15 AM 26.6 °F 22.6 °F 23.0 °F 86% 29.77 in 8.0 mi SSW 3.5 mph - N/A   Clear
8:35 AM 28.4 °F - 24.8 °F 86% 29.79 in 7.0 mi Calm Calm - N/A   Clear
8:55 AM 28.4 °F 24.6 °F 24.8 °F 86% 29.80 in 7.0 mi West 3.5 mph - N/A   Clear
9:15 AM 30.2 °F - 24.8 °F 80% 29.80 in 7.0 mi Calm Calm - N/A   Clear
9:35 AM 30.2 °F 26.7 °F 26.6 °F 86% 29.80 in 8.0 mi WNW 3.5 mph - N/A   Clear
9:55 AM 30.2 °F 26.7 °F 24.8 °F 80% 29.78 in 9.0 mi East 3.5 mph - N/A   Clear
10:15 AM 32.0 °F 28.7 °F 24.8 °F 75% 29.78 in 9.0 mi East 3.5 mph - N/A   Clear
10:35 AM 32.0 °F 26.4 °F 24.8 °F 75% 29.76 in 9.0 mi ENE 5.8 mph - N/A   Partly Cloudy
10:55 AM 33.8 °F - 26.6 °F 75% 29.77 in 10.0 mi Calm Calm - N/A   Partly Cloudy
11:15 AM 33.8 °F 28.6 °F 26.6 °F 75% 29.76 in 8.0 mi SSE 5.8 mph - N/A   Clear
11:35 AM 33.8 °F 27.0 °F 26.6 °F 75% 29.74 in 8.0 mi SE 8.1 mph - N/A   Partly Cloudy
11:55 AM 33.8 °F 25.3 °F 26.6 °F 75% 29.72 in 9.0 mi SE 11.5 mph - N/A   Scattered Clouds
12:15 PM 33.8 °F 25.8 °F 26.6 °F 75% 29.71 in 10.0 mi ESE 10.4 mph - N/A   Mostly Cloudy
12:35 PM 35.6 °F 29.2 °F 28.4 °F 75% 29.71 in 9.0 mi ENE 8.1 mph - N/A   Mostly Cloudy
12:55 PM 35.6 °F 30.7 °F 26.6 °F 70% 29.69 in 10.0 mi East 5.8 mph - N/A   Mostly Cloudy
1:15 PM 35.6 °F - 28.4 °F 75% 29.70 in 8.0 mi Calm Calm - N/A   Partly Cloudy
1:35 PM 35.6 °F 31.7 °F 28.4 °F 75% 29.69 in 6.0 mi ENE 4.6 mph - N/A   Partly Cloudy
1:55 PM 33.8 °F 29.6 °F 28.4 °F 81% 29.67 in 1.2 mi ENE 4.6 mph - N/A   Mostly Cloudy
2:15 PM 33.8 °F 29.6 °F 30.2 °F 87% 29.67 in 1.2 mi NE 4.6 mph - 0.01 in   Mostly Cloudy
2:35 PM 33.8 °F 30.8 °F 30.2 °F 87% 29.66 in 1.2 mi NNE 3.5 mph - 0.01 in   Overcast
2:55 PM 32.0 °F 26.4 °F 30.2 °F 93% 29.65 in 0.5 mi NE 5.8 mph - 0.02 in   Overcast
3:15 PM 32.0 °F 25.6 °F 30.2 °F 93% 29.64 in 0.5 mi NNE 6.9 mph - 0.01 in   Overcast
3:35 PM 32.0 °F 27.5 °F 30.2 °F 93% 29.64 in 0.2 mi NNE 4.6 mph - 0.03 in   Overcast
3:55 PM 32.0 °F 27.5 °F 30.2 °F 93% 29.63 in 0.5 mi ENE 4.6 mph - 0.05 in   Overcast
4:15 PM 32.0 °F 26.4 °F 30.2 °F 93% 29.62 in 0.8 mi NE 5.8 mph - N/A   Mostly Cloudy
4:35 PM 32.0 °F 25.6 °F 30.2 °F 93% 29.62 in 1.0 mi NE 6.9 mph - N/A   Mostly Cloudy
4:55 PM 32.0 °F 27.5 °F 30.2 °F 93% 29.63 in 0.8 mi NNE 4.6 mph - N/A   Overcast
5:15 PM 32.0 °F 25.6 °F 30.2 °F 93% 29.64 in 1.0 mi NNW 6.9 mph - 0.01 in   Overcast
5:35 PM 33.8 °F 28.6 °F 30.2 °F 87% 29.65 in 1.2 mi NNW 5.8 mph - 0.01 in   Overcast
5:55 PM 33.8 °F 27.0 °F 30.2 °F 87% 29.65 in 1.0 mi NNW 8.1 mph - 0.01 in   Overcast
6:15 PM 32.0 °F 22.1 °F 30.2 °F 93% 29.67 in 1.2 mi NNW 13.8 mph - N/A   Overcast
6:35 PM 30.2 °F 19.8 °F 28.4 °F 93% 29.68 in 3.0 mi NNW 13.8 mph 21.9 mph N/A   Overcast
6:55 PM 30.2 °F 17.8 °F 26.6 °F 86% 29.70 in 5.0 mi NNW 19.6 mph 26.5 mph N/A   Overcast
7:15 PM 26.6 °F 12.7 °F 24.8 °F 93% 29.73 in 2.5 mi NNW 20.7 mph 27.6 mph N/A   Overcast
7:35 PM 26.6 °F 13.1 °F 21.2 °F 80% 29.76 in 3.0 mi NNW 19.6 mph 31.1 mph N/A   Overcast
7:55 PM 24.8 °F 11.1 °F 21.2 °F 86% 29.77 in 3.0 mi NNW 18.4 mph 27.6 mph N/A   Overcast
8:15 PM 24.8 °F 11.9 °F 21.2 °F 86% 29.78 in 5.0 mi NNW 16.1 mph 23.0 mph N/A   Overcast
8:35 PM 24.8 °F 12.4 °F 19.4 °F 80% 29.79 in 8.0 mi NNW 15.0 mph 21.9 mph N/A   Overcast
8:55 PM 24.8 °F 11.5 °F 19.4 °F 80% 29.81 in 8.0 mi NNW 17.3 mph 26.5 mph N/A   Unknown
9:15 PM 23.0 °F 10.1 °F 19.4 °F 86% 29.83 in 8.0 mi NW 15.0 mph 23.0 mph N/A   Unknown
9:35 PM 23.0 °F 9.6 °F 17.6 °F 80% 29.85 in 9.0 mi NNW 16.1 mph 23.0 mph N/A   Unknown
9:55 PM 21.2 °F 6.8 °F 17.6 °F 86% 29.86 in 10.0 mi NNW 17.3 mph 23.0 mph N/A   Unknown
10:15 PM 21.2 °F 6.8 °F 17.6 °F 86% 29.88 in 9.0 mi NW 17.3 mph 28.8 mph N/A   Overcast
10:35 PM 19.4 °F 3.6 °F 15.8 °F 86% 29.90 in 10.0 mi NW 19.6 mph 27.6 mph N/A   Overcast
10:55 PM 19.4 °F 5.0 °F 12.2 °F 74% 29.91 in 10.0 mi NW 16.1 mph - N/A   Overcast
11:15 PM 17.6 °F 2.2 °F 12.2 °F 79% 29.92 in 10.0 mi NW 17.3 mph 23.0 mph N/A   Mostly Cloudy
11:35 PM 17.6 °F 3.7 °F 12.2 °F 79% 29.93 in 10.0 mi NW 13.8 mph - N/A   Mostly Cloudy
11:55 PM 17.6 °F 3.2 °F 10.4 °F 73% 29.94 in 10.0 mi NW 15.0 mph 20.7 mph N/A   Mostly Cloudy